Location: Marse
(42.1502°N, 110.9866°W)
Time: 11:00:11
(UTC+00:00)

QB50P2 - Visible Passes

Search period start: 30 June 2022 00:00
Search period end: 10 July 2022 00:00
Orbit: 589 x 606 km, 97.9° (Epoch: 29 June)

Date Brightness Start Highest point End Pass type
(mag) Time Alt. Az. Time Alt. Az. Time Alt. Az.
30 Jun ? 08:01:48 10° NE 08:05:18 24° E 08:05:29 24° E visible
30 Jun ? 09:37:17 10° N 09:40:56 29° WNW 09:42:12 24° W visible
01 Jul ? 08:12:02 10° NNE 08:15:50 31° E 08:16:03 31° ESE visible
01 Jul ? 09:47:59 10° NNW 09:51:19 23° WNW 09:52:46 19° W visible
02 Jul ? 08:22:19 10° NNE 08:26:21 41° E 08:26:37 40° ESE visible
02 Jul ? 09:58:48 10° NNW 10:01:41 18° WNW 10:03:19 15° W visible
03 Jul ? 08:32:40 10° NNE 08:36:50 54° E 08:37:11 52° ESE visible
03 Jul ? 10:09:44 10° NNW 10:12:02 14° WNW 10:13:53 11° W visible
04 Jul ? 08:43:04 10° NNE 08:47:19 72° ESE 08:47:44 65° SE visible
04 Jul ? 10:21:01 10° NW 10:22:23 11° WNW 10:23:44 10° W visible
05 Jul ? 08:53:30 10° NNE 08:57:46 87° WNW 08:58:17 69° SSW visible
06 Jul ? 07:31:08 10° ENE 07:32:08 11° E 07:32:08 11° E visible
06 Jul ? 09:04:00 10° N 09:08:13 67° WNW 09:08:50 57° WSW visible
07 Jul ? 07:40:26 10° ENE 07:42:40 14° E 07:42:40 14° E visible
07 Jul ? 09:14:31 10° N 09:18:38 50° WNW 09:19:23 45° WSW visible
08 Jul ? 07:50:17 10° NE 07:53:13 18° E 07:53:13 18° E visible
08 Jul ? 09:25:05 10° N 09:29:03 39° WNW 09:29:55 35° W visible
09 Jul ? 08:00:21 10° NE 08:03:45 23° E 08:03:45 23° E visible
09 Jul ? 09:35:42 10° N 09:39:26 30° WNW 09:40:27 27° W visible
